Location: Passo di Treia
(43.2833°N, 13.3333°E)
Time: 10:02:28
(UTC+00:00)

Daily predictions for brighter satellites

Satellite Brightness Start Highest point End
(mag) Time Altitude Azimuth Time Altitude Azimuth Time Altitude Azimuth
Helios 1A Rocket 3.2 15:56:26 10° S 16:00:32 75° WSW 16:04:39 10° NNW
Cosmos 1689 Rocket 3.2 15:59:45 10° N 16:02:42 46° WNW 16:05:36 10° SSW
Cosmos 2333 Rocket 2.4 15:59:00 10° SSW 16:04:44 85° WNW 16:10:34 10° NNE
Meteor 1-10 Rocket 4.2 15:59:57 10° S 16:05:25 67° E 16:10:59 10° NNE
ERBS 3.6 16:05:00 10° WNW 16:08:11 45° SW 16:11:24 10° SSE
Cosmos 2237 Rocket 2.8 16:04:07 10° S 16:09:22 40° ESE 16:14:38 10° NE
Radarsat Rocket 4.3 16:04:28 10° SSE 16:10:44 77° WSW 16:16:36 10° NNW
Cosmos 1302 Rocket 4.2 16:06:32 10° NNW 16:11:49 80° WSW 16:17:03 10° SSE
Cosmos 2322 Rocket 4.5 16:10:26 10° W 16:13:54 16° NW 16:17:24 10° N
Cosmos 1812 2.9 16:13:15 10° S 16:16:59 51° E 16:20:45 10° NNE
CENTAUR R/B 4.3 16:09:25 10° NW 16:17:15 50° WSW 16:25:32 10° S
NOSS 0 Rocket 4.0 16:12:31 10° S 16:18:37 62° ESE 16:24:46 10° NNE
CORIOLIS 4.2 16:16:14 10° SSE 16:21:33 58° ENE 16:26:54 10° N
Meteor 1-11 Rocket 3.9 16:16:07 10° N 16:22:06 65° ENE 16:27:59 10° SSE
USA 215 3.8 16:15:48 10° NE 16:22:07 53° NNW 16:28:25 10° WSW
Cosmos 2219 Rocket 2.7 16:17:59 10° SW 16:23:32 62° WNW 16:29:09 10° NNE
Cosmos 2251 Rocket 3.6 16:18:20 10° S 16:23:35 67° ESE 16:28:51 10° NNE
Meteor 1-27 Rocket 3.8 16:18:53 10° S 16:24:29 60° E 16:30:14 10° NNE
Exosat Rocket 3.5 16:20:08 10° SSW 16:25:37 73° ESE 16:30:35 10° NNE
YAOGAN 6 3.6 16:30:43 10° ESE 16:33:35 23° ENE 16:36:28 10° NNE
RESURS DK-1 3.2 16:29:41 10° SW 16:33:41 49° WNW 16:37:43 10° NNE
Cosmos 1862 Rocket 3.5 16:30:54 10° S 16:35:14 81° E 16:39:38 10° N
Cosmos 1500 3.1 16:31:50 10° N 16:35:37 85° E 16:39:21 10° S
Okean O Rocket 3.7 16:31:54 10° SSW 16:35:44 30° W 16:39:35 10° NW
IRS-1C Rocket 4.2 16:30:57 10° SSE 16:36:13 82° WSW 16:41:32 10° NNW
Cosmos 1092 Rocket 4.3 16:30:32 10° SSE 16:36:30 46° E 16:42:27 10° NNE
Cosmos 1703 Rocket 4.4 16:34:18 10° SSE 16:38:14 31° E 16:42:08 10° NNE
Cosmos 1943 Rocket 3.9 16:37:07 10° NNE 16:39:30 13° NE 16:39:37 13° NE
Envisat 3.1 16:34:46 10° SSE 16:39:41 52° ENE 16:44:36 10° N
Cosmos 1980 3.7 16:34:26 10° SSW 16:40:03 76° ESE 16:45:43 10° NNE
SMAP 3.2 16:36:11 10° S 16:40:50 80° WSW 16:45:31 10° NNW
Cosmos 2242 Rocket 3.7 16:37:38 10° S 16:42:06 60° E 16:46:38 10° NNE
ISS -3.9 16:39:02 10° NW 16:42:24 82° NNE 16:45:24 12° ESE
Cosmos 1900 4.3 16:39:58 10° NNW 16:44:49 59° NE 16:49:37 10° SE
Feng Yun 1-1 Rocket 4.4 16:41:14 10° S 16:46:37 74° WSW 16:52:02 10° NNW
CSL-04 Rocket 4.3 16:42:22 10° SE 16:46:53 30° ENE 16:51:25 10° N
Cosmos 2297 4.4 16:41:52 10° N 16:46:59 32° NE 16:52:01 10° ESE
H-2A R/B 3.0 16:43:54 10° S 16:47:35 68° W 16:51:16 10° NNW
Cosmos 407 Rocket 4.4 16:44:49 10° SSE 16:49:08 27° E 16:51:16 21° ENE
STARLINK-60 3.1 16:46:09 10° SW 16:49:29 63° SE 16:51:03 28° ENE
Okean-O 2.5 16:47:25 10° SSE 16:51:50 74° ENE 16:56:16 10° N
Cosmos 1441 Rocket 3.8 16:48:24 10° N 16:51:52 31° ENE 16:55:15 10° SE
Cosmos 1992 Rocket 4.0 16:49:49 10° NNW 16:55:04 87° WSW 17:00:17 10° SSE
USA 267 3.7 16:49:16 10° SE 16:55:46 66° SW 17:02:17 10° NW
COBE Rocket 4.1 16:51:15 10° N 16:55:52 66° WNW 17:00:30 10° SSW
Cosmos 1536 2.8 16:53:06 10° N 16:57:09 87° W 17:01:08 10° S
Cosmos 1263 4.0 16:54:04 10° S 16:57:09 70° E 16:58:59 21° NNE
COSMOS 2428 4.1 16:52:26 10° WSW 16:57:38 36° NW 17:02:52 10° N
BREEZE-M R/B 3.7 16:54:37 10° WNW 16:59:30 33° N 17:00:45 25° NNE
Shenzhou-11 Module 1.7 17:01:38 10° W 17:04:23 74° S 17:04:47 57° ESE
Cosmos 292 Rocket 3.7 17:02:57 10° NNW 17:07:49 70° ENE 17:12:39 10° SSE
Lacrosse 5 rocket 2.6 17:05:25 10° W 17:09:18 33° NNW 17:11:25 20° NNE
CZ-4 R/B 1.3 17:06:07 10° SSE 17:09:55 52° ENE 17:13:42 10° N
Cosmos 1908 Rocket 3.5 17:07:16 10° N 17:11:42 89° WSW 17:16:03 10° S
Aureole 1 Rocket 1.9 17:10:23 10° SSW 17:13:21 87° E 17:13:53 57° NNE
Genesis I 3.7 17:10:10 10° NNW 17:13:36 39° NE 17:13:36 39° NE
COSMO-SKYMED 1 2.4 17:11:25 16° NNE 17:14:54 75° ESE 17:19:14 10° S
Okean 1 3.6 17:14:29 10° SSE 17:18:07 44° ESE 17:18:07 44° ESE
SL-4 R/B 3.3 17:15:07 10° WNW 17:18:23 26° N 17:19:09 24° NNE
Cosmos 1428 Rocket 4.4 17:13:35 10° S 17:19:37 62° E 17:25:46 10° NNE
Cosmos 1666 2.9 17:16:23 10° NNW 17:20:07 69° W 17:23:49 10° S
FengYun 1-2 T 4.1 17:15:37 10° SSE 17:21:06 88° ENE 17:26:38 10° NNW
YAOGAN 1 2.5 17:16:55 10° SSE 17:21:08 56° ENE 17:25:23 10° N
Cosmos 1553 Rocket 4.2 17:16:56 10° N 17:23:04 47° ENE 17:29:13 10° SSE
NOAA 11 4.3 17:18:04 10° SE 17:23:16 47° ENE 17:28:29 10° N
NOAA 15 4.5 17:19:57 10° SSE 17:25:10 69° ENE 17:30:24 10° N
Cosmos 2278 Rocket 3.6 17:23:10 10° NW 17:28:26 40° WSW 17:33:39 10° S
Okean 1-7 3.0 17:26:03 10° S 17:30:23 86° W 17:32:59 24° N
FALCON 9 DEB 3.2 17:29:29 10° WSW 17:32:52 72° NW 17:32:52 72° NW
Cosmos 2026 Rocket 3.9 17:31:09 10° S 17:37:13 85° W 17:43:19 10° N
Cosmos 1190 Rocket 3.8 17:36:06 10° S 17:41:16 70° ESE 17:42:14 56° NE
SL-16 R/B 2.1 17:36:10 10° SSW 17:41:51 84° ESE 17:44:01 40° NNE
Centaur D-1A AC-31 3.9 17:38:33 10° SSW 17:41:56 19° SSE 17:45:42 15° SE
Cosmos 2369 Rocket 3.7 17:37:40 10° N 17:39:54 20° NNE 17:39:54 20° NNE
Meteor 1-19 Rocket 4.0 17:42:57 10° S 17:48:24 63° E 17:48:38 62° E
Cosmos 2237 Rocket 3.7 17:48:22 10° WSW 17:53:29 33° NW 17:57:42 14° N
BREEZE-M DEB (TANK) 3.3 17:50:20 10° WNW 17:52:49 37° WNW 17:52:49 37° WNW
Cosmos 1417 Rocket 4.3 17:48:02 10° N 17:54:11 77° E 18:00:19 10° SSE
Sich 1 Rocket 4.0 17:58:48 10° NNW 18:03:08 59° W 18:07:26 10° S
Cosmos 921 Rocket 3.6 17:59:18 10° NNW 18:03:29 54° WSW 18:04:17 46° SW
USA 215 4.4 18:02:28 25° NNE 18:04:17 29° N 18:09:41 10° WNW
Cosmos 1655 Rocket 3.8 17:58:51 10° S 18:05:09 77° E 18:06:27 58° NNE
ISS -0.6 18:16:58 10° W 18:18:22 13° SW 18:18:22 13° SW
Cosmos 1943 Rocket 3.7 18:18:49 10° NNW 18:21:11 25° NNW 18:21:11 25° NNW
Cosmos 1140 Rocket 4.3 18:25:24 10° SW 18:29:29 48° WSW 18:29:29 48° WSW
CZ-3B R/B 4.5 18:42:16 10° S 18:44:42 16° S 18:44:42 16° S
